Weather History for Kalamazoo, MI

Change the Weather History Date:

Sunday, January 1, 1989

  Actual Average Record
Temperature  
Mean Temperature 30 °F 25 °F  
Max Temperature 34 °F 31 °F 54 °F (2011)
Min Temperature 25 °F 19 °F -7 °F (1968)
Degree Days  
Heating Degree Days 36 40  
Since 1 July heating degree days 2491  
Moisture  
Dew Point 24 °F    
Average Humidity 83    
Maximum Humidity 92    
Minimum Humidity 70    
Precipitation  
Precipitation 0.00 in 0.07 in 1.73 in (1985)
Sea Level Pressure  
Sea Level Pressure 30.03 in    
Wind  
Wind Speed 9 mph (SSW)    
Max Wind Speed 14 mph    
Max Gust Speed -    
Visibility 4 miles    
Events Fog    
T = Trace of Precipitation, MM = Missing Value Source: NWS Daily Summary

Daily Weather History Graph

Daily Weather History Graph

Search for Another Location

Airport:

Trip Planner

Search our weather history database for the weather conditions in past years. The results will help you decide how hot, cold, wet, or windy it might be!

Date:

Astronomy

Jan. 01, 1989 Rise Set
Actual Time 8:11 AM EST 5:20 PM EST
Civil Twilight 7:39 AM EST 5:52 PM EST
Nautical Twilight 7:04 AM EST 6:27 PM EST
Astronomical Twilight 6:30 AM EST 7:01 PM EST
Moon 2:02 AM EST (1/1) 12:39 PM EST (1/1)
Length of Visible Light 10h 13m
Length of Day
9h 09m
Last Quarter, 36% of the Moon is Illuminated
Jan 1
Last Quarter
Jan 7
New
Jan 14
First Quarter
Jan 21
Full
Jan 29
Last Quarter

Hourly Weather History & Observations

Time (EST) Temp. Windchill Dew Point Humidity Pressure Visibility Wind Dir Wind Speed Gust Speed Precip Events Conditions
6:00 AM 27.1 °F 20.7 °F 23.2 °F 85% 30.07 in 3.0 mi SE 5.8 mph - N/A Fog Fog
7:00 AM 27.1 °F 18.2 °F 22.1 °F 81% 30.07 in 3.0 mi SE 9.2 mph - N/A Fog Fog
8:00 AM 26.2 °F 18.6 °F 22.1 °F 84% 30.07 in 3.0 mi SSE 6.9 mph - N/A Fog Fog
9:00 AM 26.2 °F 17.8 °F 23.2 °F 88% 30.08 in 3.0 mi South 8.1 mph - N/A Fog Fog
10:00 AM 26.2 °F 15.8 °F 23.2 °F 88% 30.10 in 3.0 mi SSW 11.5 mph - N/A Fog Fog
11:00 AM 26.2 °F 17.1 °F 23.2 °F 88% 30.11 in 3.0 mi South 9.2 mph - N/A Fog Fog
12:00 PM 27.1 °F 18.2 °F 24.3 °F 89% 30.08 in 3.0 mi South 9.2 mph - N/A Fog Fog
1:00 PM 28.2 °F 19.5 °F 24.3 °F 85% 30.06 in 4.0 mi SW 9.2 mph - N/A Fog Fog
1:30 PM - - - N/A% 30.02 in 5.0 mi WSW 9.2 mph - N/A Fog Fog
2:00 PM 32.0 °F 24.2 °F 24.3 °F 73% 30.03 in 3.0 mi SW 9.2 mph - N/A Fog Fog
3:00 PM 34.0 °F 26.6 °F 25.2 °F 70% 30.00 in 5.0 mi SW 9.2 mph - N/A Fog Fog
4:00 PM 33.1 °F 25.5 °F 25.2 °F 73% 30.00 in 5.0 mi SSW 9.2 mph - N/A   Drizzle
5:00 PM 32.0 °F 24.2 °F 24.3 °F 73% 29.98 in 5.0 mi SSW 9.2 mph - N/A   Drizzle
6:00 PM 30.2 °F 22.6 °F 24.3 °F 79% 29.99 in 5.0 mi SSW 8.1 mph - N/A   Light Freezing Rain
7:00 PM 28.2 °F 19.5 °F 24.3 °F 85% 29.99 in 4.0 mi SSW 9.2 mph - N/A Fog Fog
8:00 PM 26.2 °F 15.8 °F 24.3 °F 92% 29.98 in 2.0 mi SSW 11.5 mph - N/A Fog Fog
9:00 PM 25.2 °F 13.9 °F 23.2 °F 92% 29.96 in 3.0 mi SSW 12.7 mph - N/A Fog Fog
10:00 PM 28.2 °F 17.2 °F 24.3 °F 85% 29.96 in 4.0 mi SW 13.8 mph - N/A Fog Fog
11:00 PM 30.2 °F 20.8 °F 25.2 °F 82% 29.94 in 5.0 mi SSW 11.5 mph - N/A Fog Fog